Regional Weather Roundup
Issued by NWS

Home | Current Version | Previous Version | Text Only | Print | Product List | Glossary On
Versions: 1 2 3 4 5 6 7 8 9 10 11 12 13 14 15 16 17 18 19 20 21 22 23 24 25 26 27 28 29 30 31 32 33 34 35 36 37 38 39 40 41 42 43 44 45 46 47 48 49 50
407
ASUS44 KFWD 252203
RWRTX
NORTH TEXAS HOURLY WEATHER ROUNDUP
NATIONAL WEATHER SERVICE FORT WORTH TX
500 PM CDT MON SEP 25 2017

NOTE: "FAIR" INDICATES FEW OR NO CLOUDS BELOW 12,000 FEET WITH NO
SIGNIFICANT WEATHER AND/OR OBSTRUCTIONS TO VISIBILITY.

TXZ118-119-252300-
DALLAS/FORT WORTH METROPLEX

CITY           SKY/WX    TMP DP  RH WIND       PRES   REMARKS
DFW AIRPORT    PTSUNNY   92  62  36 S13G20    29.78F HX  92
DALLAS LOVE    CLOUDY    92  60  34 S17       29.79F HX  91
FTW MEACHAM    PTSUNNY   91  65  41 SE16G25   29.78F HX  93
DAL-EXECUTIVE  MOSUNNY   92  62  36 SE12G21   29.79F HX  92
FTW-ALLIANCE   CLOUDY    90  62  39 S13       29.79F HX  90
FTW-NAS-JRB    MOSUNNY   90  62  39 SE14      29.79F HX  90
FTW-SPINKS     PTSUNNY   91  63  38 E13G20    29.81F HX  92
ARLINGTON      CLOUDY    89  64  43 E13       29.80F HX  90
GRAND PRAIRIE  SUNNY     90  59  35 SE9       29.81F
ADDISON        MOSUNNY   91  61  35 SE10G21   29.80F HX  91
LANCASTER      MOSUNNY   91  61  36 S13G20    29.81F HX  91
$$

TXZ091>094-102>105-117-120-121-131>134-252300-
NORTH CENTRAL TEXAS

CITY           SKY/WX    TMP DP  RH WIND       PRES   REMARKS
SHRMAN/DENISON CLOUDY    87  64  46 SE10G16   29.83F
GAINESVILLE    CLOUDY    87  63  44 SE14      29.83F
BOWIE          PTSUNNY   84  65  52 SE5       29.82F
BRIDGEPORT     PTSUNNY   87  61  41 SE10      29.82F
DECATUR        MOSUNNY   86  63  45 SE12      29.81S
DENTON         CLOUDY    88  64  44 SE13      29.80F
MCKINNEY       MOSUNNY   89  65  44 S12       29.81F HX  91
BONHAM         MOSUNNY   87  64  46 SE12      29.83F
ROCKWALL       SUNNY     89  66  45 S12G18    29.81F HX  92
TERRELL        MOSUNNY   91  62  37 SE9       29.81F HX  91
WAXAHACHIE     PTSUNNY   89  64  42 SE7       29.81F HX  90
CLEBURNE       CLOUDY    91  63  38 S17G23    29.81F HX  92
GRANBURY       MOSUNNY   91  62  37 SE13      29.80F HX  91
$$

TXZ083>090-098>101-113>116-127>130-139>142-154-155-252300-
WESTERN NORTH TEXAS

CITY           SKY/WX    TMP DP  RH WIND       PRES   REMARKS
WICHITA FALLS  CLOUDY    80  66  62 S15       29.82R
WF-KICKAPOO    LGT RAIN  77  69  76 S8G16     29.85R
VERNON         CLOUDY    74  66  77 SW5       29.84S
ABILENE        CLOUDY    72  72 100 SE14      29.86F
ABILENE-DYESS  CLOUDY    74  71  91 SE9       29.84S
BRECKENRIDGE   RAIN      72  70  96 W7        29.85S
CISCO          LGT RAIN  72  72 100 NW8       29.87S
EASTLAND       RAIN      70  69  96 NW3       29.86R FOG
RANGER         LGT RAIN  72  68  88 CALM      29.83S
MINERAL WELLS  MOSUNNY   87  62  43 SE14      29.79S
STEPHENVILLE   CLOUDY    86  61  42 SE10      29.84S
COMANCHE       CLOUDY    80  70  71 E5        29.82S
BROWNWOOD      CLOUDY    73  72  94 NW9       29.82F
COLEMAN        RAIN      73  69  90 NE7       29.84F
$$

TXZ143>147-156>162-174-175-252300-
CENTRAL TEXAS

CITY           SKY/WX    TMP DP  RH WIND       PRES   REMARKS
WACO           SUNNY     93  63  36 SE10      29.78F HX  94
WACO-TSTC      MOSUNNY   93  63  36 SE8       29.79F HX  94
WACO-MCGREGOR  MOSUNNY   92  66  42 SE17G23   29.79F HX  94
HILLSBORO      CLOUDY    90  65  43 SE14G21   29.80F HX  92
CORSICANA      MOSUNNY   90  64  42 SE12      29.81F HX  91
MEXIA          PTSUNNY   87  65  47 SE12G17   29.81S
CAMERON        MOSUNNY   90  67  46 SE8       29.79S HX  93
TEMPLE         PTSUNNY   89  66  46 SE14      29.80F HX  91
KILLEEN        MOSUNNY   90  70  51 SE14G22   29.79S HX  95
FORT HOOD      PTSUNNY  N/A N/A N/A SE10      29.77S
GATESVILLE     SUNNY     88  64  45 SE10G17   29.81F
HAMILTON       MOSUNNY   88  61  39 S12G18    29.81F
LAMPASAS       PTSUNNY   88  67  49 S10       29.80S HX  91
$$

TXZ095>097-106>112-122>126-135>138-148>153-164>167-252300-
EAST TEXAS

CITY           SKY/WX    TMP DP  RH WIND       PRES   REMARKS
PARIS          MOSUNNY   87  67  51 SE8       29.84F HX  90
SULPHUR SPRNGS PTSUNNY   90  61  37 S10       29.84F HX  90
MOUNT PLEASANT SUNNY     88  67  49 E3        29.84F HX  91
GILMER         SUNNY     88  65  46 SE7       29.83F
MINEOLA        MOSUNNY   90  66  45 SE8       29.82F HX  92
TYLER          MOSUNNY   87  64  46 SE10      29.83F
LONGVIEW       MOSUNNY   90  67  46 S10       29.83F HX  93
MARSHALL       MOSUNNY   87  63  43 S3        29.86S
ATHENS         MOSUNNY   90  63  40 E9        29.80F HX  90
PALESTINE      PTSUNNY   89  67  48 SE8       29.83F HX  92
JACKSONVILLE   MOSUNNY   86  66  52 SE6       29.86F
HENDERSON      MOSUNNY   88  67  48 E8        29.85S HX  90
CENTER         CLEAR     90  69  50 E6        29.86F HX  94
NACOGDOCHES    MOSUNNY   86  68  54 E9        29.85F
LUFKIN         SUNNY     87  68  52 E10       29.83F HX  90
$$

SUPPLEMENTAL OBSERVATIONS (NWS FORT WORTH AREA)

CITY           SKY/WX    TMP DP  RH WIND       PRES   REMARKS
$$

SUPPLEMENTAL OBSERVATIONS (NWS NORMAN AREA)

CITY           SKY/WX    TMP DP  RH WIND       PRES   REMARKS
GOODLETT         N/A     72  66  80 N7        29.83S
ODELL            N/A     75  70  83 S17       29.83F
CROWELL          N/A     78  69  73 S9        29.84S
KNOX CITY        N/A     78  66  67 S8        29.85S
SEYMOUR          N/A     73  68  86 S7        29.85F
$$

SUPPLEMENTAL OBSERVATIONS (NWS SAN ANGELO AREA)

CITY           SKY/WX    TMP DP  RH WIND       PRES   REMARKS
HASKELL          N/A     74  65  73 S8        29.85F
THROCKMORTON     N/A     73  70  91 S7        29.86R
STAMFORD         N/A     75  70  85 S8        29.86S
CLYDE            N/A     70  69  97 E10       29.88F
$$

SUPPLEMENTAL OBSERVATIONS (NWS SHREVEPORT AREA)

CITY           SKY/WX    TMP DP  RH WIND       PRES   REMARKS
$$

SUPPLEMENTAL OBSERVATIONS ARE A COLLECTION OF AUTOMATED INSTRUMENTS
THAT ARE MAINTAINED BY A VARIETY OF FEDERAL AND STATE AGENCIES.
CERTAIN ELEMENTS...SUCH AS HUMIDITY VALUES AND SUSTAINED WIND
SPEEDS...MAY BE APPROXIMATED.





USA.gov is the U.S. government's official web portal to all federal, state and local government web resources and services.